Powrót do katalogu

JAC

AktywnyNaukaSSO
NORAD 56748·PAYLOAD·🇰🇷 South Korea
Ta nazwa satelity nie została jeszcze potwierdzona przez oficjalne źródła.

Wystrzelony May 25, 2023 z Naro Space Center

Loading…

Następne Przeloty (najbliższe 24 godziny)

TLE

ŚwieżeSource: Space-Track

Epoka: Sep 14, 2026, 15:36 UTC

1 56748U 23072F   26257.65002255  .00007362  00000-0  23606-3 0  9999
2 56748  97.5050  96.8496 0007039  64.3282 295.8686 15.32624855183472

Śledź JAC w czasie rzeczywistym z AllMySat

Download on the App Store